[[{"header":{"parameterUnit":"m.s-1","parameterCategory":1,"la1":30.2991,"la2":30.254,"lo1":-89.0895,"lo2":-89.0444,"dy":0.0017,"dx":0.0017,"nx":28,"ny":28,"refTime":"2025-11-06T03:00:00:Z","depth":0,"parameterNumber":2,"parameterNumberName":"U-component_of_WINDS"},"data":[0,0,0,0,0,0,0,0,0,0,0,0,0,0,0,0,0,0,0,0,0,0,0,0,0,0,0,0,0,0,0,0,0,0,0,0,0,0,0,0,0,0,0,0,0,0,0,0,0,0,0,0,0,0,0,0,0,0,-2.9316,-2.9316,0,-2.9355,-2.9355,-2.9355,-2.9364,-2.9364,-2.9364,-2.9364,-2.94,-2.9401,-2.9402,0,0,0,0,0,0,0,0,0,0,0,0,0,-2.9245,-2.9247,-2.9316,-2.9316,-2.9317,-2.9354,-2.9355,-2.9356,-2.9364,-2.9364,-2.9364,-2.9363,-2.9399,-2.9401,-2.9402,0,0,0,0,0,0,0,0,0,0,0,0,0,-2.9279,-2.9247,-2.9316,-2.9326,-2.9327,-2.9354,-2.9355,-2.9356,-2.9364,-2.9364,-2.9364,-2.9363,-2.9399,-2.94,-2.9402,-2.9421,0,0,-2.9408,-2.9408,0,0,0,0,0,0,0,0,-2.9277,-2.9282,-2.9324,-2.9325,-2.9327,-2.9354,-2.9343,-2.9377,-2.9364,-2.935,-2.9364,-2.9363,-2.9385,-2.9387,-2.9395,-2.9423,-2.9424,-2.9408,-2.9409,-2.941,-2.941,0,0,0,0,0,0,0,-2.9275,-2.928,-2.9331,-2.9324,-2.9326,-2.9327,-2.9331,-2.935,-2.9369,-2.9351,-2.9352,-2.9357,-2.9385,-2.9394,-2.9396,-2.9425,-2.9408,-2.9409,-2.941,-2.9411,-2.9468,-2.9469,0,0,0,0,0,0,-2.9271,-2.9278,-2.933,-2.9332,-2.9301,-2.9329,-2.9334,-2.9346,-2.9369,-2.9372,-2.9357,-2.9357,-2.9391,-2.9394,-2.9398,-2.9421,-2.941,-2.9411,-2.9412,-2.9468,-2.9469,-2.9469,0,0,0,0,0,0,-2.927,-2.9276,-2.9328,-2.9305,-2.9312,-2.933,-2.9344,-2.9347,-2.9355,-2.9373,-2.9376,-2.9363,-2.9391,-2.9395,-2.9415,-2.9422,-2.9412,-2.9414,-2.9468,-2.9468,-2.9469,-2.9467,0,0,0,0,0,0,-2.9268,-2.9275,-2.9284,-2.9306,-2.9313,-2.9346,-2.9344,-2.9348,-2.9359,-2.9359,-2.9379,-2.9382,-2.9391,-2.9412,-2.9417,-2.9424,-2.9415,-2.9467,-2.9468,-2.9469,-2.9467,-2.9468,-2.9468,0,0,0,0,0,-2.9265,-2.9281,-2.9284,-2.929,-2.9324,-2.9347,-2.9351,-2.9362,-2.9359,-2.9367,-2.9378,-2.9381,-2.9421,-2.9414,-2.942,-2.9428,-2.9467,-2.9468,-2.9469,-2.9466,-2.9467,-2.9468,0,0,0,0,0,0,-2.9258,-2.9284,-2.9288,-2.9311,-2.9327,-2.9348,-2.9358,-2.9363,-2.9378,-2.9378,-2.939,-2.9394,-2.9413,-2.9422,-2.9415,-2.9447,-2.9443,-2.9445,-2.944,-2.9441,-2.9442,-2.9439,-2.9417,0,0,0,0,0,-2.9259,-2.9277,-2.9298,-2.9316,-2.9324,-2.934,-2.935,-2.9357,-2.9373,-2.938,-2.9392,-2.9407,-2.9422,-2.9432,-2.9448,-2.9468,-2.9472,-2.9476,-2.9477,-2.9478,-2.9479,-2.949,-2.9492,-2.9472,-2.9472,-2.9472,0,0,-2.9262,-2.9278,-2.9288,-2.9315,-2.9328,-2.9345,-2.9345,-2.9363,-2.9374,-2.9382,-2.9402,-2.9412,-2.9428,-2.9449,-2.9458,-2.9457,-2.9485,-2.9479,-2.9479,-2.948,-2.9491,-2.9493,-2.9494,-2.9473,-2.9473,-2.9473,0,0,-2.9275,-2.9289,-2.9306,-2.9319,-2.9339,-2.935,-2.9354,-2.9374,-2.9382,-2.9402,-2.9408,-2.9421,-2.9448,-2.946,-2.9469,-2.9486,-2.9489,-2.9491,-2.9495,-2.9506,-2.9507,-2.9509,-2.9514,-2.9516,-2.9492,-2.9492,-2.9492,0,-2.9275,-2.9301,-2.9314,-2.9331,-2.9342,-2.9351,-2.9367,-2.9379,-2.9402,-2.9409,-2.9408,-2.9442,-2.9454,-2.9476,-2.9481,-2.9488,-2.9492,-2.9488,-2.9506,-2.9508,-2.9509,-2.9514,-2.9516,-2.9492,-2.9492,-2.9492,-2.9492,0,-2.93,-2.9318,-2.9329,-2.9352,-2.9365,-2.9381,-2.9396,-2.9407,-2.9412,-2.9423,-2.9443,-2.9457,-2.9476,-2.9482,-2.9487,-2.9505,-2.9504,-2.9504,-2.9501,-2.9511,-2.9516,-2.9518,-2.9493,-2.9492,-2.9492,-2.9492,0,0,-2.9309,-2.934,-2.9343,-2.9354,-2.9377,-2.939,-2.9406,-2.9425,-2.9434,-2.945,-2.9463,-2.9486,-2.9487,-2.9497,-2.9504,-2.9513,-2.9525,-2.9513,-2.9513,-2.9514,-2.9544,-2.9543,-2.9545,-2.9527,-2.9528,-2.9528,-2.9543,0,-2.9324,-2.9355,-2.9367,-2.9392,-2.9408,-2.9416,-2.943,-2.9445,-2.9455,-2.9469,-2.9479,-2.9495,-2.9495,-2.9501,-2.9511,-2.9521,-2.9531,-2.9521,-2.9538,-2.9539,-2.9533,-2.9548,-2.9547,-2.956,-2.9545,-2.9545,-2.9545,0,-2.9345,-2.9362,-2.9389,-2.941,-2.9417,-2.9429,-2.9447,-2.9461,-2.9478,-2.9484,-2.9496,-2.9503,-2.9519,-2.9515,-2.9537,-2.953,-2.9538,-2.9544,-2.9545,-2.9547,-2.9542,-2.9549,-2.9565,-2.9566,-2.9549,-2.9548,-2.9548,0,-2.9348,-2.9378,-2.9398,-2.9406,-2.9431,-2.9439,-2.945,-2.9466,-2.9476,-2.9492,-2.9499,-2.9515,-2.9524,-2.9537,-2.9547,-2.9544,-2.9568,-2.9565,-2.9572,-2.9572,-2.9576,-2.9576,-2.9593,-2.9583,-2.9583,-2.9583,-2.9583,0,-2.9363,-2.9379,-2.9399,-2.9411,-2.9429,-2.9442,-2.9458,-2.9469,-2.9483,-2.9496,-2.9505,-2.9516,-2.953,-2.9543,-2.9551,-2.9568,-2.9572,-2.9577,-2.9579,-2.9576,-2.9575,-2.9581,-2.958,-2.9583,-2.9583,-2.9583,-2.9583,0,-2.9369,-2.9383,-2.9405,-2.9427,-2.9433,-2.9444,-2.9462,-2.9473,-2.9484,-2.95,-2.9505,-2.9521,-2.9537,-2.9549,-2.957,-2.9575,-2.9593,-2.9595,-2.9587,-2.9588,-2.9594,-2.9593,-2.9615,-2.9618,-2.9607,-2.9607,-2.9607,0,-2.9377,-2.939,-2.9413,-2.9423,-2.9434,-2.945,-2.9461,-2.9474,-2.9485,-2.9504,-2.9513,-2.953,-2.9544,-2.957,-2.9582,-2.9598,-2.96,-2.9606,-2.9602,-2.9599,-2.9599,-2.9598,-2.9599,-2.9607,-2.9607,-2.9607,-2.9607,0,-2.939,-2.9397,-2.9413,-2.9432,-2.9445,-2.946,-2.9475,-2.9482,-2.9498,-2.9509,-2.9527,-2.9538,-2.9559,-2.9576,-2.9593,-2.9602,-2.9607,-2.9608,-2.9611,-2.9607,-2.9602,-2.9604,-2.9588,-2.9607,-2.9607,-2.9607,-2.9607,-2.9607,-2.9397,-2.9408,-2.9426,-2.9444,-2.9457,-2.9471,-2.9482,-2.9494,-2.9509,-2.9529,-2.9535,-2.9553,-2.9568,-2.9592,-2.9601,-2.9615,-2.9614,-2.9618,-2.9619,-2.9619,-2.9619,-2.9601,-2.9618,-2.9618,-2.9618,-2.9618,-2.9618,0,-2.9409,-2.9422,-2.9438,-2.9459,-2.9473,-2.9477,-2.9494,-2.9504,-2.952,-2.9535,-2.9549,-2.9568,-2.9585,-2.9599,-2.9615,-2.9623,-2.9625,-2.9627,-2.9626,-2.9628,-2.9618,-2.9614,-2.9624,-2.9624,-2.9624,-2.9624,-2.9624,-2.9624,-2.9418,-2.9437,-2.9445,-2.947,-2.9482,-2.95,-2.951,-2.9522,-2.9534,-2.9555,-2.9569,-2.9579,-2.9593,-2.961,-2.9625,-2.9628,-2.9634,-2.9634,-2.9638,-2.9629,-2.9628,-2.9628,-2.9624,-2.9636,-2.9636,-2.9646,-2.9647,-2.9647]},{"header":{"parameterUnit":"m.s-1","parameterCategory":1,"la1":30.2991,"la2":30.254,"lo1":-89.0895,"lo2":-89.0444,"dy":0.0017,"dx":0.0017,"nx":28,"ny":28,"refTime":"2025-11-06T03:00:00:Z","depth":0,"parameterNumber":3,"parameterNumberName":"V-component_of_WINDS"},"data":[0,0,0,0,0,0,0,0,0,0,0,0,0,0,0,0,0,0,0,0,0,0,0,0,0,0,0,0,0,0,0,0,0,0,0,0,0,0,0,0,0,0,0,0,0,0,0,0,0,0,0,0,0,0,0,0,0,0,3.4687,3.4691,0,3.5088,3.5092,3.5097,3.5201,3.5199,3.5196,3.5194,3.56,3.5613,3.5626,0,0,0,0,0,0,0,0,0,0,0,0,0,3.4011,3.4022,3.4686,3.4691,3.4696,3.5087,3.5092,3.5098,3.5201,3.5198,3.5195,3.5193,3.5596,3.5611,3.5627,0,0,0,0,0,0,0,0,0,0,0,0,0,3.4347,3.4026,3.4685,3.4795,3.4809,3.5086,3.5092,3.5099,3.5202,3.5198,3.5195,3.5191,3.559,3.5609,3.5629,3.5823,0,0,3.5689,3.5697,0,0,0,0,0,0,0,0,3.4327,3.4371,3.4774,3.4788,3.4804,3.5091,3.5003,3.5342,3.5203,3.5053,3.5194,3.5189,3.5433,3.5465,3.5549,3.5842,3.586,3.5691,3.5703,3.5711,3.5717,0,0,0,0,0,0,0,3.4304,3.4355,3.4845,3.478,3.4798,3.4825,3.4868,3.5068,3.5258,3.5065,3.5074,3.512,3.5441,3.5529,3.5559,3.5866,3.569,3.5708,3.572,3.5727,3.6346,3.635,0,0,0,0,0,0,3.4262,3.4335,3.4832,3.4857,3.4552,3.484,3.4889,3.5002,3.5257,3.5292,3.5123,3.5124,3.5498,3.5536,3.5573,3.5823,3.5711,3.5729,3.574,3.6341,3.6347,3.6352,0,0,0,0,0,0,3.4247,3.4305,3.4816,3.4599,3.4666,3.4855,3.4982,3.5012,3.5101,3.53,3.5334,3.5179,3.5496,3.5546,3.5762,3.5838,3.5738,3.5756,3.6336,3.6343,3.635,3.6319,0,0,0,0,0,0,3.4227,3.4299,3.4375,3.4599,3.4677,3.4998,3.4987,3.5023,3.5135,3.514,3.5362,3.5395,3.5497,3.5733,3.5782,3.5863,3.5771,3.633,3.6339,3.6347,3.6314,3.6324,3.6333,0,0,0,0,0,3.4203,3.4348,3.4378,3.4438,3.4775,3.5002,3.5046,3.5163,3.5141,3.5219,3.5348,3.5388,3.5821,3.5754,3.581,3.5898,3.6326,3.6337,3.6347,3.631,3.6322,3.6332,0,0,0,0,0,0,3.4124,3.4379,3.4415,3.4638,3.4798,3.5019,3.5121,3.5171,3.5339,3.5336,3.5472,3.5521,3.573,3.5836,3.5756,3.6103,3.6074,3.6096,3.6027,3.604,3.6049,3.602,3.5788,0,0,0,0,0,3.4133,3.4297,3.451,3.4686,3.4765,3.4929,3.5032,3.5109,3.5279,3.5347,3.5491,3.5654,3.5829,3.594,3.611,3.633,3.6382,3.6419,3.6428,3.6434,3.6452,3.6582,3.6602,3.6387,3.6386,3.6386,0,0,3.4152,3.4312,3.4406,3.4674,3.4807,3.4975,3.4985,3.516,3.5286,3.5373,3.5588,3.57,3.5891,3.6112,3.6216,3.6206,3.6524,3.6448,3.6452,3.6467,3.6595,3.6615,3.6633,3.6394,3.6392,3.6391,0,0,3.4274,3.441,3.4574,3.4709,3.4911,3.5021,3.506,3.5276,3.5355,3.5573,3.5643,3.5795,3.6089,3.6225,3.6332,3.6512,3.6556,3.6563,3.6611,3.6736,3.6753,3.6769,3.6836,3.6858,3.658,3.658,3.658,0,3.4272,3.4528,3.4651,3.4826,3.4943,3.5033,3.5201,3.5325,3.5572,3.5651,3.5637,3.6014,3.6149,3.6405,3.6449,3.6531,3.6583,3.6538,3.674,3.6758,3.6774,3.684,3.6865,3.658,3.658,3.658,3.658,0,3.4518,3.4694,3.4802,3.5043,3.5172,3.5341,3.5492,3.5608,3.5674,3.5785,3.6009,3.6175,3.6383,3.6449,3.6513,3.6716,3.6704,3.6713,3.6687,3.6792,3.6857,3.6883,3.6579,3.6579,3.658,3.658,0,0,3.4598,3.4909,3.4947,3.506,3.5293,3.5432,3.5607,3.5813,3.5912,3.608,3.6232,3.6483,3.6496,3.6617,3.6698,3.6807,3.6944,3.6805,3.6811,3.6827,3.7182,3.7175,3.7202,3.6974,3.698,3.6984,3.7167,0,3.4751,3.507,3.5188,3.5449,3.5616,3.5707,3.586,3.602,3.6129,3.6287,3.6407,3.6585,3.6585,3.6661,3.6772,3.6903,3.7017,3.6891,3.7119,3.7125,3.707,3.7235,3.7227,3.7392,3.7192,3.7197,3.72,0,3.4971,3.5147,3.5425,3.5643,3.5718,3.5853,3.6056,3.6204,3.6389,3.6461,3.66,3.6676,3.6864,3.6826,3.7089,3.7001,3.7102,3.718,3.719,3.7217,3.717,3.7269,3.7447,3.7472,3.724,3.7237,3.7234,0,3.5007,3.5312,3.552,3.5613,3.5871,3.5966,3.6077,3.6259,3.6377,3.6553,3.6632,3.6825,3.6932,3.7081,3.7208,3.7167,3.7461,3.7432,3.7528,3.7525,3.7587,3.7581,3.7785,3.7647,3.7646,3.7646,3.7645,0,3.5166,3.5334,3.554,3.5668,3.586,3.5996,3.6182,3.6299,3.6461,3.6614,3.6702,3.6844,3.7002,3.7164,3.7264,3.747,3.7516,3.7581,3.7606,3.7575,3.7567,3.7643,3.7636,3.7653,3.7651,3.765,3.7649,0,3.5238,3.5382,3.5616,3.5843,3.5905,3.6036,3.6231,3.636,3.6475,3.6668,3.6721,3.6901,3.7098,3.7239,3.749,3.7558,3.778,3.7803,3.7719,3.7732,3.7821,3.7812,3.8083,3.8128,3.7956,3.7957,3.7958,0,3.5331,3.5463,3.5706,3.5817,3.593,3.6105,3.6228,3.6368,3.6492,3.6716,3.6818,3.7021,3.7192,3.7502,3.7655,3.7849,3.788,3.7962,3.7909,3.7875,3.7885,3.7877,3.7893,3.7969,3.797,3.7971,3.7972,0,3.5482,3.5549,3.5723,3.5925,3.607,3.6235,3.64,3.6485,3.6655,3.679,3.6994,3.7127,3.7388,3.7589,3.78,3.7915,3.7973,3.7988,3.8021,3.7991,3.7938,3.7972,3.7743,3.7981,3.798,3.7979,3.7979,3.7978,3.557,3.5694,3.5886,3.6079,3.622,3.6374,3.6508,3.6642,3.6815,3.704,3.7112,3.7324,3.751,3.78,3.7918,3.8087,3.8083,3.813,3.8143,3.8153,3.8154,3.791,3.8125,3.8125,3.8125,3.8125,3.8125,0,3.5729,3.5859,3.6035,3.6267,3.642,3.6463,3.6651,3.6775,3.6962,3.7131,3.7299,3.7536,3.7734,3.7904,3.8109,3.8212,3.8244,3.8261,3.8256,3.8283,3.8143,3.8096,3.8232,3.8232,3.8232,3.8232,3.8232,3.8232,3.583,3.6043,3.6134,3.6419,3.6548,3.6759,3.6863,3.7006,3.7143,3.7405,3.7571,3.7682,3.7853,3.8073,3.8257,3.8302,3.8375,3.8386,3.8438,3.8304,3.8292,3.828,3.8236,3.84,3.84,3.8565,3.8566,3.8567]}]]